This is the latest recevied weather packets stored in our database for station/object F5MAP-5. If no packets are shown the sender has not sent any weather packets the latest 10 day(s).
| Time | Temp. | Humidity | Pressure | Rain* | Wind** | Luminosity | Snow |
|---|---|---|---|---|---|---|---|
| 1777828930 | 20° C | 45% | 1014.3 hPa | 0 mm | - | 23 W/m² | - |
| 1777828332 | 20° C | 43% | 1014.3 hPa | 0 mm | - | 23 W/m² | - |
| 1777827732 | 20° C | 41% | 1014.3 hPa | 0 mm | - | 32 W/m² | - |
| 1777827132 | 20.56° C | 40% | 1014.4 hPa | 0 mm | - | 35 W/m² | - |
| 1777826532 | 20.56° C | 39% | 1014.4 hPa | 0 mm | - | 44 W/m² | - |
| 1777825932 | 20.56° C | 38% | 1014.3 hPa | 0 mm | - | 47 W/m² | - |
| 1777825332 | 20.56° C | 37% | 1014.3 hPa | 0 mm | - | 49 W/m² | - |
| 1777824732 | 21.11° C | 40% | 1014.3 hPa | 0 mm | - | 49 W/m² | - |
| 1777824132 | 21.11° C | 39% | 1014.3 hPa | 0 mm | - | 39 W/m² | - |
| 1777823532 | 21.67° C | 38% | 1014.1 hPa | 0 mm | - | 40 W/m² | - |
| 1777822932 | 21.67° C | 37% | 1014.2 hPa | 0 mm | - | 44 W/m² | - |
| 1777822332 | 21.67° C | 36% | 1014 hPa | 0 mm | - | 60 W/m² | - |
| 1777821732 | 22.22° C | 36% | 1013.9 hPa | 0 mm | - | 114 W/m² | - |
| 1777821132 | 22.22° C | 35% | 1014 hPa | 0 mm | - | 127 W/m² | - |
| 1777820531 | 22.22° C | 34% | 1014 hPa | 0 mm | - | 149 W/m² | - |
| 1777819931 | 22.78° C | 34% | 1014 hPa | 0 mm | - | 165 W/m² | - |
| 1777819332 | 22.78° C | 34% | 1014 hPa | 0 mm | - | 199 W/m² | - |
| 1777818731 | 23.33° C | 35% | 1014 hPa | 0 mm | - | 239 W/m² | - |
| 1777818131 | 23.33° C | 33% | 1014.2 hPa | 0 mm | - | 167 W/m² | - |
| 1777817531 | 23.89° C | 34% | 1014 hPa | 0 mm | - | 155 W/m² | - |
| 1777816931 | 24.44° C | 31% | 1014 hPa | 0 mm | - | 200 W/m² | - |
| 1777816332 | 25° C | 29% | 1014 hPa | 0 mm | - | 262 W/m² | - |
| 1777815731 | 25.56° C | 28% | 1014 hPa | 0 mm | - | 253 W/m² | - |
| 1777815131 | 26.11° C | 27% | 1014.1 hPa | 0 mm | - | 362 W/m² | - |
| 1777814531 | 26.67° C | 25% | 1013.8 hPa | 0 mm | - | 369 W/m² | - |
* Rain latest hour (hover to see other rain measurements)
** Current wind speed in m/s (hover to see current wind gust speed)